{"data":{"norad_id":53601,"intl_designator":"2022-104P","name":"STARLINK-4675","alt_names":[],"object_type":"PAYLOAD","status":"ACTIVE","operator":null,"country":"US","launch_date":"2022-08-28","launch_site_code":"AFETR","launch_vehicle":null,"mission":null,"orbit_class":"UNKNOWN","rcs_meters":null,"size_class":null,"mass_kg":null,"dimensions":null,"purposes":["comms"],"wikipedia_slug":null,"has_3d_model":false,"image_url":null,"decayed_at":null,"tle_current":{"epoch":"2026-05-25T01:01:55.992288Z","epoch_age_seconds":64559,"freshness":"FRESH","line1":"1 53601U 22104P   26145.04300917  .00000388  00000+0  42465-4 0  9999","line2":"2 53601  53.2171 261.2091 0001220  88.4900 271.6232 15.08842021207149","mean_motion":15.08842021,"eccentricity":0.000122,"inclination_deg":53.2171,"raan_deg":261.2091,"arg_perigee_deg":88.49,"mean_anomaly_deg":271.6232,"bstar":4.2465e-5,"rev_number":20714,"period_min":95.4374268451,"perigee_km":538.8932309287,"apogee_km":540.58119223632,"semimajor_km":6917.8742115825,"source":"CELESTRAK","updated_at":"2026-05-25T13:38:17.475666Z"}}}